星链-32609 (STARLINK-32609)

导读

STARLINK-32609是美国太空探索技术公司SpaceX于2024年11月11日发射的星链(Starlink)卫星,属于星链低轨互联网星座的组成部分。星链计划旨在为全球偏远地区提供高速低延迟宽带服务,该卫星配备相控阵天线与霍尔推进器,运行在近地轨道,通过星座组网实现全球网络覆盖,助力卫星互联网服务的普及拓展。

基本信息
目录编号:
61929
目录名称:
STARLINK-32609
国际标识:
2024-207T
轨道中心:
EARTH
卫星名称:
星链-32609
卫星全名:
星链-32609 (STARLINK-32609)
卫星状态:
在轨 (已飞行670 天)
发射日期:
2024-11-11 UTC
国别 :
美国 (US)
星等 :
--
该卫星已列入 空间交会检测服务 Space Conjunction Data Service (SCDS) ,当前飞行风险评估等级: 高风险
轨道信息
数据来源 国际轨道数据 AOE轨道数据
星历时间 2026-09-12T04:20:36+0800
9小时前
查看轨道信息
2026-09-10T12:00:00+0800
2天前
查看轨道信息
半长轴 6861.153km 6861.123km
偏心率 0.0000819 0.0000939
轨道倾角 42.995° 42.998°
近地点辐角 301.651° 297.687°
升交点赤经 310.321° 319.816°
平近点角 58.427° 167.304°
近地点 482.454km 482.341km
远地点 483.578km 483.631km
周期 94.266分钟 94.265分钟
每日圈数 15.275912 15.276011
详细信息
固有亮度:
5
最大亮度:
2.5
卫星平台:
Starlink V1.0
覆盖范围:
全球
运营商:
太空探索技术公司
运营商所在国:
美国
制造商(研发单位):
太空探索技术公司
制造商所在国:
美国
使用方式:
暂无
卫星简介
Starlink 计划是 SpaceX 推出的全球卫星互联网项目,通过发射低轨道卫星,为全球尤其是偏远地区提供高速、低延迟的互联网服务。自 2019 年起,Starlink 已部署数千颗卫星,旨在缩小全球数字鸿沟,推动互联网普及。该项目还为军事、航空等行业提供通信支持,带来广泛经济效益。
2D轨道图
3D轨道图
轨道高度分析图
轨道倾角分析图
轨道综合分析图
查看轨道综合分析图
交会数据列表
事件ID 空间交会对象 最接近时刻(TCA) 交会距离 交会风险概率(CRP) 交会风险指数(CRI) 操作
CDM_260914-041605-974206-192921
2026-09-14T
04:16:04+0000
0.509 km
远距离
1.342152E-4 高风险 0.78
CDM_260914-055005-974206-192922
2026-09-14T
05:50:13+0000
1.359 km
极远距离
6.028907E-6 低风险 0.51
CDM_260914-024105-974206-192921
2026-09-14T
02:41:54+0000
2.292 km
极远距离
1.418967E-6 低风险 0.38
与全量物体交会距离演化趋势
与全量物体交会风险概率演化趋势